Location: Étavigny
(49.1201°N, 2.9800°E)
Time: 19:44:27
(UTC+00:00)

deb Kosmos-1275 - Visible Passes

Search period start: 02 March 2024 00:00
Search period end: 12 March 2024 00:00
Orbit: 839 x 955 km, 83.0° (Epoch: 02 March)

Date Brightness Start Highest point End Pass type
(mag) Time Alt. Az. Time Alt. Az. Time Alt. Az.
02 Mar ? 04:43:06 10° NE 04:43:37 10° NE 04:44:07 10° ENE visible
02 Mar ? 18:04:53 10° ESE 18:07:12 13° ENE 18:09:32 10° NE visible
02 Mar ? 19:44:20 10° S 19:49:58 81° E 19:55:33 10° N visible
02 Mar ? 21:30:38 10° WSW 21:34:23 18° WNW 21:38:09 10° NNW visible
03 Mar ? 04:43:42 10° NE 04:45:48 12° ENE 04:47:54 10° E visible
03 Mar ? 18:05:59 10° ESE 18:09:03 15° E 18:12:06 10° NE visible
03 Mar ? 19:46:18 10° S 19:51:57 87° W 19:57:33 10° N visible
03 Mar ? 21:33:16 10° W 21:36:32 16° WNW 21:39:47 10° NNW visible
04 Mar ? 04:45:04 10° NNE 04:47:58 14° ENE 04:50:52 10° E visible
04 Mar ? 18:07:17 10° ESE 18:10:54 18° E 18:14:30 10° NE visible
04 Mar ? 19:48:19 10° SSW 19:53:56 75° W 19:59:30 10° N visible
04 Mar ? 21:36:03 10° W 21:38:41 13° WNW 21:41:19 10° NNW visible
05 Mar ? 04:46:38 10° NNE 04:50:07 16° ENE 04:53:36 10° E visible
05 Mar ? 18:08:42 10° SE 18:12:45 21° E 18:16:46 10° NE visible
05 Mar ? 19:50:21 10° SSW 19:55:55 64° WNW 20:01:28 10° N visible
05 Mar ? 21:39:07 10° WNW 21:40:50 11° WNW 21:42:34 10° NW visible
06 Mar ? 04:48:18 10° NNE 04:52:14 19° ENE 04:56:12 10° ESE visible
06 Mar ? 18:10:14 10° SE 18:14:37 24° E 18:18:59 10° NNE visible
06 Mar ? 19:52:27 10° SSW 19:57:55 55° WNW 20:03:23 10° N visible
07 Mar ? 04:50:02 10° NNE 04:54:21 22° ENE 04:58:42 10° ESE visible
07 Mar ? 18:11:48 10° SE 18:16:29 28° E 18:21:08 10° NNE visible
07 Mar ? 19:54:34 10° SSW 19:59:56 47° WNW 20:05:18 10° N visible
08 Mar ? 04:51:47 10° NNE 04:56:25 25° ENE 05:01:07 10° ESE visible
08 Mar ? 18:13:27 10° SSE 18:18:21 33° E 18:23:15 10° NNE visible
08 Mar ? 19:56:44 10° SW 20:01:57 40° WNW 20:07:11 10° N visible
09 Mar ? 04:53:36 10° N 04:58:29 29° ENE 05:03:28 10° SE visible
09 Mar ? 18:15:08 10° SSE 18:20:14 38° E 18:25:20 10° NNE visible
09 Mar ? 19:58:56 10° SW 20:03:59 34° WNW 20:09:02 10° N visible
10 Mar ? 04:55:25 10° N 05:00:32 34° ENE 05:05:46 10° SE visible
10 Mar ? 18:16:52 10° SSE 18:22:08 45° E 18:27:23 10° NNE visible
10 Mar ? 20:01:11 10° SW 20:06:01 30° WNW 20:10:52 10° N visible
11 Mar ? 04:57:15 10° N 05:02:34 39° ENE 05:07:59 10° SE visible
11 Mar ? 18:18:39 10° SSE 18:24:01 53° E 18:29:26 10° NNE visible
11 Mar ? 20:03:28 10° WSW 20:08:04 26° WNW 20:12:41 10° N visible
